CW2989 Weather Reports


time (UTC)temp
C
wind
direction
speed
KPH
gust
KPH
rain 1hr
cm
rain 24hr
cm
rain mn
cm
humidity
%
barometer
mb
20210518212428 18 128 8.0 19.3 0.46 0.23 0.25 91 994.4
20210518211354 20 161 1.6 11.3 0.00 0.03 0.03 88 994.5
20210518210357 20 198 1.6 8.0 0.00 0.00 0.00 87 994.5
20210518205329 20 142 1.6 11.3 0.00 0.00 0.00 85 994.6
20210518204333 20 124 1.6 12.9 0.00 0.00 0.00 84 994.9
20210518203338 20 125 3.2 12.9 0.00 0.00 0.00 83 994.9
20210518202307 20 143 3.2 8.0 0.00 0.00 0.00 83 995.3
20210518201246 20 82 3.2 12.9 0.00 0.00 0.00 82 995.5
20210518200308 20 48 3.2 12.9 0.00 0.00 0.00 82 995.5
20210518195238 20 157 4.8 11.3 0.00 0.00 0.00 81 994.9
20210518194240 20 164 3.2 14.5 0.00 0.00 0.00 81 995.5
20210518193236 20 95 6.4 14.5 0.00 0.00 0.00 80 995.5
20210518192233 21 105 4.8 17.7 0.00 0.33 0.00 80 996.0
20210518191201 21 92 6.4 19.3 0.00 0.33 0.00 80 995.5
20210518190224 21 126 4.8 22.5 0.00 0.33 0.00 81 995.5
20210518185218 20 88 6.4 22.5 0.00 0.33 0.00 83 995.9
20210518184236 20 105 6.4 17.7 0.00 0.33 0.00 83 996.0
20210518183240 21 91 6.4 17.7 0.00 0.33 0.00 82 996.0
20210518182207 20 142 6.4 20.9 0.00 0.76 0.00 85 996.1
20210518181151 20 90 6.4 16.1 0.00 1.07 0.00 85 996.0
20210518180154 20 96 8.0 20.9 0.00 1.45 0.00 86 996.0
20210518175127 19 67 8.0 20.9 0.00 1.57 0.00 90 996.0
20210518174111 18 134 6.4 16.1 0.00 1.57 0.00 92 996.4
20210518173105 18 54 6.4 16.1 0.00 1.57 0.00 93 996.4
20210518172126 18 83 6.4 17.7 0.00 1.57 0.00 95 996.5
20210518171118 18 88 6.4 17.7 0.00 1.57 0.00 95 996.0
20210518170103 18 105 6.4 17.7 0.00 1.57 0.00 95 996.0
20210518165106 18 53 4.8 16.1 0.00 1.57 0.00 95 996.4
20210518164053 18 89 4.8 16.1 0.00 1.57 0.00 95 996.0
20210518163054 18 91 4.8 20.9 0.00 1.57 0.00 95 996.0
20210518162116 18 102 6.4 20.9 0.00 1.57 0.00 93 995.7
20210518161141 19 59 4.8 12.9 0.00 1.57 0.00 94 996.2
20210518160117 20 83 1.6 9.7 0.00 1.60 0.00 92 996.2
20210518155103 20 78 0.0 4.8 0.00 1.60 0.00 92 996.2
20210518154046 20 77 0.0 0.0 0.00 1.60 0.00 92 996.0
20210518153055 20 77 0.0 4.8 0.00 1.60 0.00 91 996.0
20210518152118 20 77 1.6 4.8 0.00 1.60 0.00 91 996.0
20210518151111 20 74 0.0 3.2 0.00 1.60 0.00 90 996.0
20210518150136 20 274 0.0 0.0 0.00 1.60 0.00 90 996.0
20210518145152 20 274 0.0 0.0 0.00 1.60 0.00 90 995.5
20210518144128 20 274 0.0 8.0 0.00 1.60 0.00 90 994.8
20210518143120 20 250 1.6 19.3 0.00 1.60 0.00 90 994.8
20210518142134 20 226 3.2 19.3 0.00 1.60 0.00 91 993.8
20210518141125 19 222 6.4 16.1 0.00 1.60 0.00 91 993.5
20210518140103 19 219 4.8 16.1 0.00 1.60 0.00 92 993.5
20210518135047 18 234 4.8 17.7 0.00 1.60 0.00 92 993.0
20210518134056 18 224 3.2 12.9 0.00 1.60 0.00 92 993.6
20210518133100 18 237 3.2 12.9 0.00 1.60 0.00 92 993.6
20210518132115 18 256 3.2 16.1 0.00 1.60 0.00 91 993.7
20210518131051 18 263 3.2 17.7 0.00 1.60 0.00 91 993.3
20210518130059 18 213 3.2 17.7 0.00 1.60 0.00 91 993.3
20210518125027 18 236 1.6 9.7 0.00 1.60 0.00 90 993.2
20210518124050 18 213 1.6 9.7 0.00 1.60 0.00 90 993.2
20210518123105 18 254 1.6 8.0 0.00 1.60 0.00 90 993.2
20210518122129 18 244 1.6 8.0 0.00 1.60 0.00 90 993.3
20210518121114 18 222 1.6 9.7 0.00 1.60 0.00 91 992.9
20210518120114 18 226 1.6 9.7 0.00 1.60 0.00 91 992.9
20210518115042 18 103 3.2 9.7 0.00 1.60 0.00 91 992.8
20210518114020 18 236 1.6 9.7 0.00 1.60 0.00 92 993.0
20210518113043 18 165 3.2 14.5 0.00 1.60 0.00 92 993.0
20210518112014 18 165 4.8 16.1 0.00 1.60 0.00 92 993.2
20210518111010 18 132 4.8 16.1 0.00 1.60 0.00 91 993.2
20210518105947 18 145 4.8 14.5 0.00 1.60 0.00 91 993.2
20210518104914 18 167 4.8 17.7 0.00 1.60 0.00 90 993.5
20210518103851 18 95 3.2 17.7 0.00 1.60 0.00 90 993.7
20210518102913 18 150 3.2 9.7 0.00 1.60 0.00 89 993.7
20210518101901 17 142 1.6 14.5 0.00 1.60 0.00 90 993.4
20210518100848 17 135 3.2 14.5 0.00 1.60 0.00 89 993.6
20210518095845 17 138 3.2 16.1 0.00 1.60 0.00 88 993.8
20210518094907 17 153 4.8 16.1 0.00 1.60 0.00 87 993.8
20210518093905 17 159 6.4 16.1 0.00 1.60 0.00 87 993.9
20210518092917 17 142 4.8 19.3 0.00 1.60 0.00 87 993.9
20210518091850 18 161 6.4 19.3 0.00 1.60 0.00 86 994.1
20210518090902 18 145 6.4 17.7 0.00 1.60 0.00 84 994.3
20210518085847 18 146 8.0 17.7 0.00 1.60 0.00 84 994.4
20210518084908 18 130 8.0 20.9 0.00 1.60 0.00 82 994.4
20210518083926 18 98 9.7 20.9 0.00 1.60 0.00 82 994.5
20210518082900 18 124 8.0 16.1 0.00 1.60 0.00 81 994.8
20210518081906 19 151 6.4 17.7 0.00 1.60 0.00 81 994.8
20210518080854 19 155 6.4 17.7 0.00 1.60 0.00 82 994.3
20210518075901 19 165 4.8 16.1 0.00 1.60 0.00 82 994.3
20210518074909 20 83 4.8 17.7 0.00 1.60 0.00 85 994.3
20210518073837 20 159 6.4 17.7 0.00 1.60 0.00 85 994.2
20210518072848 21 136 4.8 12.9 0.00 1.60 0.00 92 994.8
20210518071852 21 132 4.8 14.5 0.00 1.60 0.00 91 994.8
20210518070846 21 115 4.8 14.5 0.00 1.60 0.00 91 994.8
20210518065812 21 125 4.8 9.7 0.00 1.60 0.00 91 994.9
20210518064828 21 78 4.8 14.5 0.00 1.60 0.00 91 994.9
20210518063759 21 72 3.2 14.5 0.00 1.60 0.00 91 993.8
20210518062754 21 253 4.8 14.5 0.00 1.60 0.00 91 993.3
20210518061806 21 253 6.4 16.1 0.00 1.60 0.00 92 993.3
20210518060750 21 237 8.0 19.3 0.00 1.60 0.00 92 992.9
20210518055722 21 265 8.0 22.5 0.00 1.60 0.00 92 993.2
20210518054735 21 214 8.0 22.5 0.00 1.60 0.00 93 993.2
20210518053715 21 225 8.0 20.9 0.00 1.60 0.00 93 993.3
20210518052712 21 266 6.4 22.5 0.00 1.60 0.00 94 993.7
20210518051639 20 271 3.2 22.5 0.00 1.60 0.00 94 993.7
20210518050634 20 250 6.4 17.7 0.00 1.60 0.00 94 993.6
20210518045605 20 257 4.8 19.3 0.00 1.60 1.60 94 993.7
20210518044550 20 214 6.4 19.3 0.00 1.60 1.60 94 993.7
20210518043521 20 197 4.8 16.1 0.00 1.60 1.60 94 993.7
20210518042539 19 223 4.8 14.5 0.00 1.60 1.60 93 994.1
20210518041556 19 233 1.6 11.3 0.00 1.60 1.60 93 994.1
20210518040601 19 244 3.2 8.0 0.00 1.60 1.60 93 994.3
20210518035622 19 236 0.0 4.8 0.00 1.60 1.60 92 994.4
20210518034611 19 254 0.0 3.2 0.00 1.60 1.60 92 994.4
20210518033630 19 254 1.6 4.8 0.00 1.60 1.60 91 994.3
20210518032646 20 240 1.6 6.4 0.00 1.60 1.60 90 994.3
20210518031651 20 237 1.6 6.4 0.00 1.60 1.60 90 994.3
20210518030631 20 241 1.6 6.4 0.00 1.60 1.60 89 994.4
20210518025626 20 238 3.2 12.9 0.00 1.60 1.60 89 994.4
20210518024614 20 259 4.8 12.9 0.00 1.60 1.60 88 994.4
20210518023601 20 242 4.8 12.9 0.00 1.60 1.60 87 993.7
20210518022533 20 244 3.2 14.5 0.00 1.60 1.60 87 993.0
20210518021517 21 284 4.8 14.5 0.00 1.60 1.60 87 993.0
20210518020443 21 233 6.4 17.7 0.00 1.60 1.60 86 992.7
20210518015419 21 249 4.8 19.3 0.00 1.60 1.60 84 993.1
20210518014406 21 221 4.8 19.3 0.00 1.60 1.60 82 992.9
20210518013357 21 265 4.8 16.1 0.00 1.60 1.60 80 992.9
20210518012326 22 244 3.2 16.1 0.00 1.60 1.60 78 993.2
20210518011333 22 244 1.6 8.0 0.00 1.60 1.60 76 993.1
20210518010334 22 230 3.2 11.3 0.00 1.60 1.60 75 993.1
20210518005305 23 157 4.8 14.5 0.00 1.60 1.60 73 993.2
20210518004257 23 245 4.8 14.5 0.00 1.60 1.60 72 993.0
20210518003255 23 240 4.8 14.5 0.00 1.60 1.60 70 993.0
20210518002222 23 240 6.4 19.3 0.00 1.60 1.60 69 992.9
20210518001213 23 234 8.0 19.3 0.00 1.60 1.60 67 992.4
20210518000236 24 219 8.0 19.3 0.00 1.60 1.60 66 992.4
20210517235205 24 231 6.4 27.4 0.00 1.60 1.60 64 992.2
20210517234141 25 252 9.7 27.4 0.00 1.60 1.60 63 992.5
20210517233132 25 187 8.0 24.1 0.00 1.60 1.60 61 992.5
20210517232142 26 240 8.0 20.9 0.00 1.60 1.60 61 992.3
20210517231112 26 267 8.0 19.3 0.00 1.60 1.60 58 992.2
20210517230114 26 227 6.4 17.7 0.00 1.60 1.60 59 992.2
20210517225046 26 238 8.0 19.3 0.00 1.60 1.60 60 992.2
20210517224044 26 250 8.0 17.7 0.00 1.60 1.60 64 992.1
20210517223105 26 236 6.4 17.7 0.00 1.60 1.60 67 992.1
20210517222125 26 223 4.8 14.5 0.00 1.60 1.60 66 992.1
20210517221125 26 237 3.2 9.7 0.00 1.60 1.60 64 991.6
20210517220122 26 260 0.0 6.4 0.00 1.60 1.60 65 991.6
20210517215118 27 219 0.0 1.6 0.00 1.60 1.60 64 991.1
20210517214125 26 241 0.0 0.0 0.00 1.60 1.60 66 991.2
20210517213112 26 241 0.0 4.8 0.00 1.60 1.60 69 991.2